TimeEDT,TemperatureF,Dew PointF,Humidity,Sea Level PressureIn,VisibilityMPH,Wind Direction,Wind SpeedMPH,Gust SpeedMPH,PrecipitationIn,Events,Conditions,WindDirDegrees,DateUTC
12:15 AM,58.1,50.2,75,29.82,10.0,West,11.5,-,N/A,,Overcast,280,2013-07-28 04:15:00
12:34 AM,58.1,50.9,77,29.81,10.0,West,9.2,-,N/A,,Overcast,280,2013-07-28 04:34:00
12:55 AM,58.1,51.8,80,29.81,10.0,West,8.1,-,N/A,,Overcast,270,2013-07-28 04:55:00
1:15 AM,58.3,51.6,78,29.81,10.0,West,6.9,-,N/A,,Overcast,280,2013-07-28 05:15:00
1:34 AM,58.3,51.6,78,29.80,10.0,West,6.9,-,N/A,,Overcast,260,2013-07-28 05:34:00
1:55 AM,58.1,53.4,84,29.80,10.0,Calm,Calm,-,N/A,Rain,Light Rain,0,2013-07-28 05:55:00
2:15 AM,56.7,55.4,96,29.80,7.0,West,4.6,-,N/A,Rain,Rain,270,2013-07-28 06:15:00
2:35 AM,55.9,54.9,96,29.79,4.0,NNW,4.6,-,N/A,Rain,Heavy Rain,340,2013-07-28 06:35:00
2:55 AM,55.6,54.9,97,29.79,7.0,NW,4.6,-,N/A,Rain,Rain,320,2013-07-28 06:55:00
3:14 AM,55.6,54.3,96,29.79,7.0,NW,4.6,-,N/A,,Light Drizzle,310,2013-07-28 07:14:00
3:35 AM,55.4,54.0,95,29.79,10.0,NW,4.6,-,N/A,,Overcast,320,2013-07-28 07:35:00
3:55 AM,54.9,52.7,92,29.78,10.0,NW,5.8,-,N/A,,Overcast,310,2013-07-28 07:55:00
4:15 AM,55.4,52.7,91,29.78,10.0,NW,5.8,-,N/A,,Overcast,320,2013-07-28 08:15:00
4:35 AM,56.1,53.1,89,29.78,10.0,NNW,6.9,-,N/A,,Overcast,330,2013-07-28 08:35:00
4:55 AM,56.5,53.6,90,29.78,10.0,NW,5.8,-,N/A,,Overcast,310,2013-07-28 08:55:00
5:15 AM,56.3,53.2,89,29.77,10.0,WNW,8.1,-,N/A,,Overcast,300,2013-07-28 09:15:00
5:35 AM,55.9,53.1,90,29.77,10.0,NW,6.9,-,N/A,,Overcast,310,2013-07-28 09:35:00
5:55 AM,55.6,52.2,88,29.78,10.0,NW,6.9,-,N/A,,Overcast,310,2013-07-28 09:55:00
6:15 AM,55.0,50.7,85,29.78,10.0,WNW,5.8,-,N/A,,Mostly Cloudy,300,2013-07-28 10:15:00
6:35 AM,55.2,51.4,87,29.79,10.0,NW,6.9,-,N/A,,Mostly Cloudy,310,2013-07-28 10:35:00
6:54 AM,55.4,51.8,88,29.79,10.0,NW,5.8,-,N/A,,Overcast,320,2013-07-28 10:54:00
7:15 AM,55.6,52.0,88,29.80,10.0,NW,5.8,-,N/A,,Overcast,310,2013-07-28 11:15:00
7:35 AM,55.8,52.2,88,29.80,10.0,NW,4.6,-,N/A,,Overcast,310,2013-07-28 11:35:00
7:54 AM,56.3,52.0,85,29.80,10.0,WNW,4.6,-,N/A,,Overcast,300,2013-07-28 11:54:00
8:15 AM,56.7,52.3,85,29.80,10.0,WNW,6.9,-,N/A,,Overcast,290,2013-07-28 12:15:00
8:35 AM,57.2,52.3,84,29.80,10.0,West,9.2,-,N/A,,Overcast,270,2013-07-28 12:35:00
8:55 AM,57.2,52.0,83,29.80,10.0,WSW,5.8,-,N/A,,Mostly Cloudy,250,2013-07-28 12:55:00
9:15 AM,58.3,52.3,81,29.80,10.0,WSW,8.1,-,N/A,,Mostly Cloudy,250,2013-07-28 13:15:00
9:35 AM,59.0,51.6,76,29.81,10.0,West,8.1,-,N/A,,Mostly Cloudy,270,2013-07-28 13:35:00
9:55 AM,58.3,51.3,77,29.81,10.0,West,8.1,-,N/A,,Mostly Cloudy,260,2013-07-28 13:55:00
10:15 AM,60.4,52.7,76,29.81,10.0,West,10.4,-,N/A,,Mostly Cloudy,270,2013-07-28 14:15:00
10:35 AM,58.6,51.1,76,29.81,10.0,WSW,9.2,-,N/A,,Mostly Cloudy,250,2013-07-28 14:35:00
10:55 AM,59.0,50.5,73,29.81,10.0,West,8.1,-,N/A,,Mostly Cloudy,260,2013-07-28 14:55:00
11:15 AM,59.2,51.4,75,29.82,10.0,WSW,8.1,-,N/A,,Overcast,250,2013-07-28 15:15:00
11:34 AM,59.2,51.6,76,29.82,10.0,West,13.8,17.3,N/A,,Overcast,260,2013-07-28 15:34:00
11:55 AM,59.5,52.5,78,29.82,10.0,WSW,8.1,-,N/A,,Overcast,250,2013-07-28 15:55:00
12:15 PM,60.3,52.0,74,29.83,10.0,WSW,10.4,-,N/A,,Overcast,240,2013-07-28 16:15:00
12:34 PM,60.1,52.0,75,29.83,10.0,West,12.7,18.4,N/A,,Overcast,260,2013-07-28 16:34:00
12:55 PM,59.9,52.2,76,29.83,10.0,WSW,12.7,-,N/A,,Overcast,240,2013-07-28 16:55:00
1:14 PM,61.0,52.5,74,29.83,10.0,West,15.0,-,N/A,,Overcast,260,2013-07-28 17:14:00
1:35 PM,61.0,52.2,73,29.83,10.0,WSW,10.4,-,N/A,,Overcast,240,2013-07-28 17:35:00
1:55 PM,61.9,51.8,69,29.83,10.0,WSW,13.8,23.0,N/A,,Mostly Cloudy,240,2013-07-28 17:55:00
2:14 PM,61.7,51.3,69,29.83,10.0,SW,11.5,-,N/A,,Mostly Cloudy,230,2013-07-28 18:14:00
2:35 PM,63.0,52.2,68,29.83,10.0,WSW,13.8,24.2,N/A,,Mostly Cloudy,240,2013-07-28 18:35:00
2:55 PM,62.8,50.9,65,29.83,10.0,WSW,15.0,-,N/A,,Mostly Cloudy,240,2013-07-28 18:55:00
3:14 PM,61.7,51.8,70,29.84,10.0,SW,12.7,17.3,N/A,,Overcast,230,2013-07-28 19:14:00
3:35 PM,61.7,51.8,70,29.84,10.0,WSW,12.7,-,N/A,,Overcast,250,2013-07-28 19:35:00
3:55 PM,62.4,52.5,70,29.85,10.0,WSW,16.1,-,N/A,,Overcast,250,2013-07-28 19:55:00
4:15 PM,60.8,52.5,74,29.86,10.0,SW,11.5,-,N/A,,Overcast,230,2013-07-28 20:15:00
4:35 PM,58.1,53.1,83,29.87,7.0,SW,6.9,-,N/A,Rain,Light Rain,230,2013-07-28 20:35:00
4:54 PM,58.5,54.3,86,29.87,7.0,SW,11.5,-,N/A,Rain,Rain,230,2013-07-28 20:54:00
5:15 PM,57.0,55.6,95,29.87,10.0,SSW,8.1,-,N/A,,Overcast,200,2013-07-28 21:15:00
5:35 PM,57.2,55.9,96,29.87,4.0,SSW,8.1,-,N/A,,Drizzle,210,2013-07-28 21:35:00
5:55 PM,57.4,56.7,97,29.87,5.0,SW,8.1,-,N/A,Rain,Rain,220,2013-07-28 21:55:00
6:15 PM,58.1,57.0,96,29.87,4.0,SW,6.9,-,N/A,Rain,Rain,230,2013-07-28 22:15:00
6:35 PM,57.2,56.3,97,29.88,2.5,SW,6.9,-,N/A,Rain,Rain,220,2013-07-28 22:35:00
6:55 PM,57.4,56.7,97,29.88,10.0,SSW,6.9,-,N/A,,Overcast,210,2013-07-28 22:55:00
7:15 PM,57.4,56.8,98,29.88,7.0,SSW,8.1,-,N/A,,Overcast,210,2013-07-28 23:15:00
7:35 PM,57.0,56.7,99,29.88,4.0,SSW,4.6,-,N/A,Rain,Light Rain,210,2013-07-28 23:35:00
7:55 PM,56.8,56.5,99,29.88,10.0,South,3.5,-,N/A,,Overcast,190,2013-07-28 23:55:00
8:15 PM,57.2,56.7,98,29.89,10.0,South,3.5,-,N/A,,Overcast,170,2013-07-29 00:15:00
8:35 PM,56.8,56.5,99,29.89,10.0,South,3.5,-,N/A,,Overcast,170,2013-07-29 00:35:00
8:55 PM,56.7,56.3,99,29.89,10.0,Calm,Calm,-,N/A,,Overcast,0,2013-07-29 00:55:00
9:14 PM,56.5,56.3,99,29.89,10.0,Calm,Calm,-,N/A,,Overcast,0,2013-07-29 01:14:00
9:35 PM,56.3,55.8,98,29.89,10.0,Calm,Calm,-,N/A,,Overcast,0,2013-07-29 01:35:00
9:55 PM,56.3,55.8,98,29.90,4.0,SW,4.6,-,N/A,Rain,Rain,230,2013-07-29 01:55:00
10:15 PM,55.9,55.8,99,29.91,4.0,West,4.6,-,N/A,Rain,Heavy Rain,260,2013-07-29 02:15:00
10:35 PM,55.6,55.6,100,29.92,5.0,Calm,Calm,-,N/A,Rain,Heavy Rain,0,2013-07-29 02:35:00
10:55 PM,56.3,56.3,100,29.92,4.0,Calm,Calm,-,N/A,,Light Drizzle,0,2013-07-29 02:55:00
11:15 PM,55.8,55.6,99,29.92,10.0,Calm,Calm,-,N/A,,Overcast,0,2013-07-29 03:15:00
11:35 PM,55.6,55.4,99,29.92,10.0,Calm,Calm,-,N/A,,Overcast,0,2013-07-29 03:35:00
11:55 PM,55.6,55.6,100,29.92,10.0,SSE,3.5,-,N/A,,Overcast,160,2013-07-29 03:55:00